Probability
6 6 6 0 6 6 6 0 3 6 3 6 3 3 10 3 6 3 3 29 52 55 55 52 52 52 48 58 58 61 58 58 52 45 39 45 42 39 42 35 39 35 35
10 3 13 13 6 0 3 6 10 6 3 3 6 6 6 6 6 6 6 13 39 48 48 52 48 48 55 52 52 52 55 65 61 48 52 48 39 39 39 39 39 35 35
6 3 13 3 3 6 3 6 3 10 3 3 6 6 10 6 6 6 6 3 10 42 55 52 48 48 48 55 55 55 55 58 58 48 48 45 48 45 45 39 35 35 32
16 6 13 10 3 13 6 10 0 0 0 6 6 10 3 3 3 3 3 6 3 13 32 55 58 58 58 58 61 65 68 65 61 55 52 52 52 52 48 35 42 39 39
23 16 6 6 3 13 10 10 6 3 3 6 10 10 0 0 0 10 10 10 3 0 6 23 55 61 61 65 68 68 68 61 61 61 52 52 45 35 26 29 26 26 29
16 13 13 6 13 13 10 6 6 6 6 10 13 13 6 6 6 6 10 10 6 10 3 3 16 42 58 58 68 68 58 52 58 48 42 39 42 39 32 23 19 23 19
13 13 16 13 13 13 6 6 6 3 6 3 13 10 6 3 3 10 13 13 10 10 6 10 3 6 13 45 52 52 55 52 55 45 48 45 39 32 35 32 23 16 19
16 19 16 13 16 13 10 10 6 6 10 6 6 3 0 0 0 6 0 10 6 6 6 6 3 6 6 6 13 48 52 55 48 42 42 45 45 35 32 32 35 23 19
29 26 19 19 16 23 13 10 10 6 6 6 3 0 0 3 0 0 6 10 3 3 3 6 3 3 6 3 6 16 45 45 48 42 42 39 42 39 35 35 29 32 29
26 29 29 23 26 23 19 19 13 13 10 6 3 0 0 0 0 3 3 3 6 3 3 6 6 3 3 0 3 6 16 26 35 42 42 39 39 32 35 29 32 32 32
23 29 32 26 26 23 23 19 19 23 23 10 6 6 6 3 0 0 0 3 3 3 3 0 0 3 6 3 0 3 13 16 19 29 39 39 39 29 32 29 29 29 29
23 26 32 29 26 26 26 29 23 26 16 10 10 10 10 10 6 6 6 3 3 6 6 3 3 6 3 0 3 10 6 6 13 13 19 29 39 35 26 26 26 29 29
19 23 29 26 26 29 29 29 26 26 19 16 16 10 10 13 6 6 6 6 6 6 6 3 3 3 3 3 3 6 10 3 0 0 6 6 13 13 16 23 23 26 26
23 19 23 23 26 32 32 32 29 26 23 19 19 16 16 19 13 10 6 6 6 6 6 6 3 3 3 10 10 3 3 3 3 0 0 0 6 6 3 6 6 10 13
26 16 19 26 29 26 23 23 19 16 23 23 19 19 16 16 16 19 10 6 6 10 6 6 3 6 6 10 10 10 3 3 0 0 0 0 0 0 0 0 0 0 0
26 23 26 23 23 19 19 19 19 19 23 23 23 19 16 16 13 13 13 13 6 6 6 3 3 6 6 6 6 3 3 0 0 0 0 0 0 0 0 0 0 0 0
16 23 23 23 23 19 19 19 16 16 16 16 19 16 16 13 16 16 10 6 10 6 13 10 10 6 6 3 6 3 0 0 0 0 3 3 3 0 0 0 0 0 0
13 16 16 16 16 19 19 16 13 13 13 13 10 13 13 16 16 10 16 13 10 10 13 10 10 10 3 3 3 6 6 10 3 3 3 3 3 3 0 0 0 0 0
16 16 10 10 16 16 13 16 16 16 13 13 10 10 13 13 13 10 16 16 16 13 10 10 10 10 6 6 6 6 6 10 10 6 3 3 3 3 0 0 0 0 0
19 13 10 13 13 13 10 6 10 10 10 10 3 3 6 16 10 10 13 13 13 10 10 10 10 6 6 6 6 6 6 6 6 6 6 3 3 3 3 0 0 0 0
10 13 13 13 13 10 6 6 6 6 6 6 3 0 0 0 0 0 6 6 6 10 10 10 6 3 3 3 3 3 3 3 3 6 10 3 3 3 3 3 0 0 0
13 13 13 13 13 10 3 3 3 6 3 3 3 0 0 0 0 0 0 0 0 6 6 6 6 3 3 3 3 3 6 3 3 3 6 3 3 3 3 3 3 0 0
10 10 13 13 10 6 6 0 0 0 3 3 0 0 0 3 0 3 0 0 0 0 0 0 6 6 6 6 6 6 3 3 3 3 3 3 3 3 3 3 0 0 0
10 10 13 10 6 6 3 0 0 0 0 0 0 0 0 0 0 0 0 0 3 3 0 0 0 0 6 6 3 6 6 3 3 3 6 6 3 3 0 0 0 0 0
10 10 10 6 6 6 6 0 0 0 0 0 0 0 0 0 0 0 0 0 3 0 0 0 0 0 0 0 0 3 3 3 3 3 6 6 6 0 0 3 0 0 0
10 10 6 6 6 6 3 0 0 0 0 0 0 0 0 0 0 0 0 0 0 3 3 3 3 0 0 0 0 0 3 3 3 3 3 3 6 3 3 0 0 0 0
Height
5899 5898 5898 5897 5896 5895 5894 5893 5892 5891 5890 5889 5888 5888 5887 5886 5885 5884 5883 5881 5880 5879 5878 5877 5876 5875 5874 5873 5873 5873 5872 5872 5872 5872 5871 5871 5871 5871 5871 5871 5871 5871 5871
5899 5898 5897 5896 5896 5895 5893 5892 5891 5890 5889 5889 5888 5887 5885 5884 5883 5882 5881 5880 5879 5877 5876 5875 5874 5873 5872 5871 5871 5871 5870 5870 5870 5870 5869 5869 5869 5869 5869 5869 5869 5869 5869
5898 5898 5897 5896 5895 5894 5893 5892 5891 5890 5889 5888 5887 5886 5884 5883 5882 5881 5880 5879 5877 5876 5875 5874 5873 5871 5871 5870 5869 5869 5868 5868 5867 5867 5867 5867 5867 5867 5867 5866 5866 5866 5866
5898 5897 5896 5895 5894 5893 5892 5891 5890 5889 5887 5886 5885 5884 5883 5882 5881 5880 5878 5877 5876 5874 5873 5872 5871 5870 5869 5868 5867 5867 5866 5866 5865 5864 5864 5865 5864 5864 5864 5864 5864 5864 5864
5897 5896 5895 5894 5893 5892 5891 5889 5888 5887 5886 5884 5883 5882 5881 5880 5879 5878 5876 5875 5874 5872 5871 5870 5869 5867 5866 5866 5865 5864 5864 5863 5863 5862 5862 5862 5862 5862 5861 5861 5861 5861 5861
5896 5895 5894 5893 5891 5890 5889 5888 5887 5886 5884 5883 5881 5880 5879 5878 5876 5875 5874 5873 5872 5870 5869 5868 5866 5865 5864 5863 5862 5862 5861 5860 5860 5860 5859 5859 5859 5858 5858 5857 5858 5858 5858
5894 5893 5893 5891 5890 5889 5887 5886 5885 5884 5882 5881 5879 5878 5877 5875 5874 5872 5871 5870 5869 5867 5866 5865 5864 5862 5861 5860 5859 5859 5858 5857 5857 5856 5855 5855 5855 5855 5855 5854 5854 5854 5854
5893 5892 5891 5889 5888 5887 5885 5884 5883 5881 5880 5878 5877 5875 5874 5873 5871 5870 5868 5867 5866 5864 5863 5862 5860 5859 5858 5857 5856 5855 5854 5853 5853 5852 5852 5852 5852 5852 5851 5851 5851 5850 5851
5890 5889 5888 5887 5885 5884 5883 5881 5880 5879 5877 5876 5874 5873 5871 5870 5868 5867 5865 5864 5862 5860 5859 5858 5857 5856 5855 5854 5852 5851 5850 5849 5849 5849 5849 5848 5848 5848 5848 5847 5847 5847 5847
5888 5887 5885 5884 5883 5881 5880 5878 5877 5875 5874 5872 5870 5869 5868 5866 5865 5864 5862 5860 5858 5857 5855 5853 5852 5851 5851 5849 5848 5847 5846 5845 5845 5844 5844 5844 5844 5843 5843 5843 5843 5843 5842
5885 5884 5882 5880 5879 5878 5876 5875 5873 5872 5870 5868 5867 5865 5863 5862 5861 5860 5858 5856 5855 5853 5851 5849 5848 5847 5846 5845 5844 5843 5842 5841 5840 5839 5839 5839 5839 5839 5838 5838 5838 5838 5838
5882 5880 5878 5876 5875 5874 5872 5870 5869 5868 5866 5864 5862 5860 5859 5858 5856 5854 5853 5852 5850 5848 5846 5845 5843 5842 5841 5840 5839 5838 5836 5836 5835 5834 5834 5833 5833 5833 5833 5833 5833 5833 5833
5878 5876 5874 5872 5871 5870 5868 5867 5865 5863 5861 5859 5858 5856 5855 5853 5851 5849 5848 5846 5845 5843 5841 5840 5838 5837 5836 5835 5833 5832 5831 5830 5829 5829 5828 5828 5828 5827 5827 5827 5827 5828 5828
5874 5872 5871 5869 5867 5865 5864 5862 5860 5858 5856 5854 5853 5851 5849 5847 5846 5844 5843 5841 5840 5838 5836 5834 5832 5831 5829 5828 5828 5826 5825 5824 5823 5823 5822 5822 5821 5821 5821 5821 5821 5821 5821
5870 5868 5866 5864 5863 5860 5858 5857 5855 5853 5851 5849 5847 5845 5844 5842 5840 5838 5837 5836 5834 5832 5831 5829 5827 5825 5823 5822 5821 5820 5819 5818 5817 5816 5816 5815 5814 5814 5814 5814 5814 5814 5814
5866 5863 5861 5859 5857 5855 5853 5851 5849 5847 5845 5843 5841 5840 5838 5836 5834 5832 5830 5829 5827 5826 5824 5822 5820 5819 5817 5816 5815 5814 5813 5812 5811 5810 5809 5808 5808 5807 5807 5807 5807 5807 5807
5860 5858 5856 5854 5851 5849 5847 5845 5842 5840 5838 5837 5835 5833 5832 5830 5828 5826 5824 5822 5820 5819 5817 5816 5814 5812 5811 5810 5808 5807 5806 5805 5804 5803 5802 5801 5801 5800 5800 5800 5800 5800 5800
5854 5852 5849 5847 5845 5843 5840 5838 5836 5834 5832 5830 5828 5827 5825 5824 5822 5820 5817 5815 5813 5811 5810 5809 5807 5805 5804 5802 5801 5800 5799 5798 5797 5796 5795 5794 5793 5793 5792 5792 5792 5791 5792
5848 5845 5843 5840 5838 5836 5834 5831 5829 5827 5825 5823 5822 5820 5819 5817 5815 5813 5810 5808 5806 5804 5803 5801 5800 5798 5796 5795 5794 5793 5791 5791 5790 5789 5788 5787 5786 5785 5784 5784 5783 5783 5783
5841 5838 5835 5833 5831 5829 5827 5825 5823 5820 5818 5816 5814 5813 5811 5809 5807 5805 5803 5801 5799 5797 5795 5794 5792 5790 5789 5787 5786 5785 5784 5782 5782 5781 5780 5779 5778 5777 5776 5776 5775 5775 5775
5834 5831 5829 5827 5824 5822 5820 5818 5815 5813 5811 5809 5807 5805 5803 5801 5799 5797 5795 5793 5791 5789 5787 5786 5784 5783 5781 5780 5778 5777 5776 5775 5774 5773 5771 5770 5770 5769 5768 5767 5767 5767 5766
5827 5825 5822 5820 5818 5815 5813 5810 5808 5806 5804 5801 5799 5797 5795 5793 5791 5789 5786 5785 5783 5781 5779 5778 5776 5775 5773 5772 5770 5769 5768 5767 5766 5765 5763 5762 5761 5761 5760 5759 5758 5758 5758
5820 5817 5815 5813 5810 5808 5805 5803 5800 5798 5795 5793 5791 5788 5786 5784 5782 5780 5778 5776 5774 5773 5771 5770 5768 5766 5765 5764 5762 5761 5759 5758 5757 5756 5755 5754 5752 5752 5751 5750 5749 5748 5748
5813 5810 5808 5805 5803 5800 5797 5795 5792 5790 5787 5785 5782 5780 5777 5775 5773 5771 5769 5767 5765 5764 5762 5761 5759 5758 5756 5754 5753 5752 5750 5749 5748 5746 5745 5745 5743 5742 5741 5740 5739 5739 5739
5806 5803 5800 5798 5795 5792 5790 5787 5784 5782 5779 5776 5774 5771 5769 5766 5764 5762 5760 5758 5756 5755 5753 5751 5750 5748 5746 5745 5744 5742 5741 5740 5739 5738 5736 5735 5734 5733 5732 5731 5730 5730 5729
5798 5795 5792 5790 5787 5784 5782 5779 5776 5774 5771 5768 5766 5763 5760 5758 5755 5753 5751 5749 5747 5745 5744 5742 5740 5739 5737 5736 5734 5733 5732 5731 5729 5728 5727 5725 5724 5723 5723 5722 5721 5720 5720
Wind_Speed
4 4 3 4 4 3 4 3 4 4 4 4 5 6 6 5 5 5 5 5 6 6 6 6 5 6 6 6 6 6 7 7 7 7 7 7 7 7 7 8 8 9 9
4 4 4 4 4 4 4 4 5 5 5 5 5 6 6 6 6 5 6 6 6 6 7 6 6 6 6 5 6 6 7 7 8 8 9 8 8 9 9 9 9 9 10
4 4 4 4 4 4 4 4 5 6 6 6 6 6 6 6 6 6 6 6 7 7 7 7 6 6 6 6 6 7 7 8 8 9 9 9 9 9 9 10 9 9 10
4 4 4 4 4 4 5 5 5 6 7 7 7 7 6 6 7 8 8 7 8 8 8 7 7 6 6 6 7 8 9 9 9 9 9 10 10 10 10 10 10 10 11
3 4 4 4 4 4 5 5 6 7 8 8 7 7 7 7 8 8 8 8 8 9 8 8 8 7 7 8 9 9 10 10 10 10 10 10 11 11 11 11 11 11 11
4 5 5 5 5 5 6 6 7 8 8 8 8 8 8 8 9 9 9 9 9 9 9 9 8 8 9 9 10 10 10 10 11 11 12 12 12 12 11 12 12 12 12
6 6 7 7 7 7 7 7 8 9 9 8 8 8 9 9 9 10 10 10 10 10 10 10 10 10 10 11 11 11 11 12 12 12 13 12 13 13 13 12 12 13 13
7 7 8 8 9 9 9 9 9 10 9 9 9 9 10 10 11 11 12 12 12 11 11 11 11 12 12 12 12 12 13 13 13 13 14 14 14 14 13 13 13 13 13
9 10 11 10 10 10 11 11 11 11 11 11 11 11 11 11 12 12 13 13 13 13 13 13 13 13 13 13 14 14 14 14 14 15 15 15 15 15 15 15 15 14 15
10 11 12 12 12 12 11 12 12 12 12 13 12 12 12 12 13 13 14 14 14 14 14 14 14 14 14 14 14 15 15 15 15 16 16 17 16 16 17 17 16 16 16
12 13 14 13 13 12 12 13 13 13 14 14 14 14 13 14 14 14 14 15 16 16 15 15 15 15 15 15 15 15 16 16 17 17 17 17 18 18 18 17 18 17 17
14 15 15 15 14 15 14 14 15 15 16 16 15 15 15 15 16 15 15 16 16 16 16 16 16 17 16 16 17 17 17 17 18 18 19 19 19 19 20 19 19 19 19
15 16 16 16 15 16 16 16 17 17 17 17 17 17 17 17 17 16 16 16 17 17 18 18 19 19 18 18 19 19 18 18 19 20 20 20 21 21 21 21 20 20 20
17 17 17 17 18 18 18 18 18 19 19 19 19 19 19 18 18 18 17 17 18 19 20 20 20 20 19 20 20 20 20 19 19 19 20 21 22 22 21 22 22 22 22
19 18 18 19 20 21 20 19 20 20 20 19 19 20 20 20 20 19 18 19 19 20 21 22 22 22 21 21 21 21 20 20 20 20 21 21 21 22 22 22 23 24 24
20 20 20 21 21 22 22 22 21 22 22 21 21 21 21 21 20 20 20 21 21 21 21 22 22 22 22 21 21 21 21 21 21 22 22 22 22 22 23 23 24 24 24
22 23 23 23 23 23 22 22 22 22 22 22 22 22 22 21 21 21 22 23 23 22 22 22 22 22 22 22 22 22 22 22 22 23 23 23 24 24 25 25 25 25 25
23 24 24 24 23 23 23 23 23 22 22 23 23 22 22 23 22 23 24 24 23 23 23 22 22 23 23 23 24 24 24 24 25 25 25 24 25 26 26 26 26 27 27
25 25 25 25 24 23 23 23 23 23 23 23 23 23 24 25 25 25 25 25 25 24 24 23 23 24 24 24 24 25 26 26 26 26 26 26 26 26 26 26 27 27 27
26 25 25 25 24 24 24 25 26 25 25 25 25 25 26 26 27 27 26 26 26 25 25 25 25 24 24 25 25 25 25 26 27 27 27 27 27 26 26 26 26 27 27
25 25 25 25 25 25 25 25 26 27 27 27 27 27 28 28 28 28 28 27 26 26 25 26 25 25 25 25 26 26 26 27 27 28 28 28 27 26 26 27 27 28 28
26 26 26 26 26 26 27 27 27 28 28 28 29 29 29 29 29 29 29 28 27 27 26 26 26 26 27 27 26 26 27 27 27 27 27 27 28 27 27 27 28 28 29
27 26 27 26 27 27 28 28 28 28 28 28 29 30 30 30 29 29 29 29 28 28 28 27 27 27 27 28 27 27 27 28 28 28 28 28 28 28 28 28 27 27 28
27 27 27 26 27 28 28 29 29 28 29 30 29 29 29 30 29 29 29 29 29 28 28 28 28 28 28 28 29 28 28 28 28 28 29 28 28 29 29 29 29 28 29
27 27 27 27 28 28 29 29 30 30 30 29 29 29 29 29 29 29 29 29 29 29 29 29 29 29 29 29 30 29 29 29 28 29 29 29 29 29 28 28 28 29 29
28 28 27 28 29 29 29 29 29 30 30 29 30 29 29 29 29 29 29 29 29 29 30 30 30 30 30 30 30 30 30 30 29 29 29 29 28 28 28 29 29 29 29
Wind_Direction
30 25 17 13 18 8 347 337 342 330 324 325 327 326 324 324 331 320 319 319 319 316 313 313 302 291 281 267 260 256 254 253 256 258 254 253 254 258 261 253 255 251 249
18 14 7 360 357 350 346 344 344 336 329 322 318 320 325 326 327 318 317 318 315 312 311 310 304 295 288 266 256 255 256 255 253 255 255 254 254 256 258 257 251 252 250
11 8 5 349 342 343 341 333 331 331 332 324 317 317 319 322 321 320 314 315 313 309 308 307 302 297 287 272 263 258 259 258 256 256 257 254 255 258 260 258 257 255 255
356 360 352 344 339 333 330 330 335 333 326 322 320 317 314 314 312 314 313 314 312 309 307 306 301 293 290 279 272 268 263 262 259 258 259 256 256 257 261 260 262 262 263
341 346 345 347 343 338 332 332 332 330 328 321 319 317 314 312 308 310 311 310 309 308 305 301 299 291 288 281 273 270 267 265 263 259 257 257 256 258 263 259 260 264 262
327 331 332 330 328 325 323 322 322 322 322 321 319 317 315 314 307 306 311 307 303 305 302 297 295 290 285 281 277 271 269 264 264 262 259 258 258 261 264 261 262 262 262
315 318 320 319 320 320 318 317 317 316 316 315 313 313 312 312 309 306 306 304 298 298 296 292 288 283 281 283 278 273 271 269 265 263 259 261 263 265 264 262 263 262 262
307 307 309 311 312 314 312 311 311 311 310 309 306 303 303 304 305 306 303 302 299 295 294 289 284 281 280 282 273 276 273 267 267 266 262 261 262 263 264 265 264 262 261
307 302 304 302 304 305 306 307 306 304 304 304 302 298 297 297 297 300 299 298 298 294 292 291 286 282 280 281 280 278 274 268 267 266 265 263 262 261 262 264 264 264 261
305 303 303 299 298 299 301 302 302 301 302 303 303 301 300 300 296 297 296 295 296 294 292 290 286 283 283 282 282 279 274 270 267 267 267 264 262 263 261 262 263 263 262
301 302 299 299 298 298 298 299 299 296 296 299 299 298 298 299 297 296 293 292 293 291 288 288 284 281 282 281 279 278 273 269 267 268 268 266 266 263 263 262 262 263 261
299 298 298 300 297 292 293 297 297 295 293 296 298 296 299 299 297 294 290 290 291 291 290 288 286 282 279 280 279 278 275 272 269 269 268 267 266 266 266 264 263 263 262
303 301 298 295 296 294 292 294 295 296 292 293 295 295 296 295 294 292 290 288 288 289 290 289 285 283 280 277 279 279 277 275 272 270 269 268 266 266 266 265 263 262 261
305 304 300 296 296 295 294 294 295 294 293 293 292 293 295 293 290 289 289 289 289 289 289 289 288 285 282 279 277 276 274 274 273 273 273 271 268 267 266 266 264 261 260
302 302 298 296 295 293 292 291 292 291 293 293 293 294 295 293 290 288 289 290 290 289 288 286 285 284 283 282 278 278 274 273 272 273 273 272 270 268 268 266 265 263 262
300 299 298 298 297 295 292 291 291 290 288 290 291 291 291 293 293 290 290 291 291 290 288 285 283 280 279 280 277 278 276 276 274 274 273 272 271 270 268 267 266 265 263
299 299 297 295 294 293 292 294 295 290 289 289 289 290 291 293 294 294 293 293 291 290 288 284 282 281 279 277 276 276 277 277 277 278 276 274 272 270 269 268 266 264 264
300 300 299 294 291 291 292 291 292 291 290 290 291 291 292 293 294 293 294 294 293 290 287 284 283 281 279 276 274 274 275 275 274 276 276 275 273 271 269 268 267 264 262
297 297 296 295 292 289 290 290 291 292 293 294 293 292 292 291 290 292 292 291 291 290 288 286 283 281 281 279 277 276 275 274 274 275 274 275 275 272 270 269 268 266 263
296 296 295 296 295 291 292 292 292 293 293 292 291 291 291 291 291 291 291 291 291 288 285 285 284 282 280 279 278 277 275 275 275 275 274 273 274 273 271 270 268 267 265
298 296 296 297 297 296 294 292 291 291 291 290 290 290 289 289 290 290 290 290 289 288 286 284 284 282 281 281 279 277 275 275 275 274 273 273 273 272 271 270 268 267 266
298 296 298 299 297 297 295 294 294 291 290 290 289 288 288 288 288 288 288 288 287 286 285 284 283 283 282 282 281 279 276 274 274 273 273 273 272 271 270 270 269 268 267
296 295 296 297 297 297 297 295 293 294 292 292 291 289 288 287 287 288 287 286 285 284 283 282 281 281 281 282 281 279 277 276 274 273 272 273 272 270 271 270 270 268 266
295 295 295 295 297 296 295 294 294 295 294 293 293 293 291 289 288 286 285 285 284 283 283 283 282 281 280 280 280 281 280 277 274 274 273 273 272 272 272 270 268 268 266
294 294 295 297 298 297 296 296 295 295 296 295 295 295 295 293 290 288 286 285 283 282 282 281 282 282 280 280 280 280 280 278 276 274 273 273 272 272 271 270 269 268 267
296 295 294 297 298 296 297 297 296 296 295 295 295 295 295 293 291 289 288 286 284 282 282 282 282 282 281 280 280 280 280 279 277 274 273 272 271 271 271 271 269 268 267